Time,TemperatureF,DewpointF,PressureIn,WindDirection,WindDirectionDegrees,WindSpeedMPH,WindSpeedGustMPH,Humidity,HourlyPrecipIn,Conditions,Clouds,dailyrainin,SoftwareType,DateUTC
2013-03-07 00:02:00,32.0,29.0,30.14,NE,40,0.0,0.0,89,0.00,,,0.01,,2013-03-07 05:02:00,
2013-03-07 00:12:00,32.0,29.0,30.14,NE,40,0.0,0.0,89,0.00,,,0.01,,2013-03-07 05:12:00,
2013-03-07 00:22:00,32.0,29.0,30.14,NE,40,0.0,0.0,89,0.00,,,0.01,,2013-03-07 05:22:00,
2013-03-07 00:32:00,32.0,29.0,30.14,NE,40,0.0,0.0,90,0.00,,,0.01,,2013-03-07 05:32:00,
2013-03-07 00:42:00,32.0,29.0,30.14,NE,40,0.0,0.0,90,0.00,,,0.01,,2013-03-07 05:42:00,
2013-03-07 00:52:00,32.0,29.0,30.14,NE,40,0.0,0.0,90,0.00,,,0.01,,2013-03-07 05:52:00,
2013-03-07 01:01:00,32.0,29.0,30.14,NE,40,0.0,0.0,90,0.00,,,0.01,,2013-03-07 06:01:00,
2013-03-07 01:11:00,32.0,29.0,30.14,NE,40,0.0,0.0,90,0.00,,,0.01,,2013-03-07 06:11:00,
2013-03-07 01:21:00,32.0,29.0,30.14,NE,40,0.0,0.0,90,0.00,,,0.01,,2013-03-07 06:21:00,
2013-03-07 01:32:00,32.0,29.0,30.15,NE,40,0.0,0.0,90,0.00,,,0.01,,2013-03-07 06:32:00,
2013-03-07 01:42:00,32.0,30.0,30.15,NE,40,0.0,0.0,91,0.00,,,0.01,,2013-03-07 06:42:00,
2013-03-07 01:52:00,32.0,30.0,30.15,NE,40,0.0,0.0,91,0.00,,,0.01,,2013-03-07 06:52:00,
2013-03-07 02:01:00,32.0,30.0,30.15,NE,40,0.0,0.0,91,0.00,,,0.01,,2013-03-07 07:01:00,
2013-03-07 02:11:00,32.0,30.0,30.15,NE,40,0.0,0.0,91,0.00,,,0.01,,2013-03-07 07:11:00,
2013-03-07 02:22:00,32.0,30.0,30.15,NE,40,0.0,0.0,91,0.00,,,0.01,,2013-03-07 07:22:00,
2013-03-07 02:32:00,32.0,30.0,30.15,NE,40,0.0,0.0,91,0.00,,,0.01,,2013-03-07 07:32:00,
2013-03-07 02:43:00,32.0,30.0,30.15,NE,40,0.0,0.0,91,0.00,,,0.01,,2013-03-07 07:43:00,
2013-03-07 02:53:00,32.0,30.0,30.15,NE,40,0.0,0.0,91,0.00,,,0.01,,2013-03-07 07:53:00,
2013-03-07 03:03:00,32.0,30.0,30.15,NE,40,0.0,0.0,91,0.00,,,0.01,,2013-03-07 08:03:00,
2013-03-07 03:12:00,32.0,30.0,30.15,NE,40,0.0,0.0,91,0.00,,,0.01,,2013-03-07 08:12:00,
2013-03-07 03:23:00,32.0,30.0,30.15,NE,40,0.0,0.0,92,0.00,,,0.01,,2013-03-07 08:23:00,
2013-03-07 03:33:00,32.0,30.0,30.15,NE,40,0.0,0.0,92,0.00,,,0.01,,2013-03-07 08:33:00,
2013-03-07 03:44:00,32.0,30.0,30.15,NE,40,0.0,0.0,92,0.00,,,0.01,,2013-03-07 08:44:00,
2013-03-07 03:54:00,32.0,30.0,30.15,NE,40,0.0,0.0,92,0.00,,,0.01,,2013-03-07 08:54:00,
2013-03-07 04:03:00,32.0,30.0,30.15,NE,40,0.0,0.0,92,0.00,,,0.01,,2013-03-07 09:03:00,
2013-03-07 04:13:00,32.0,30.0,30.15,NE,40,0.0,0.0,92,0.00,,,0.01,,2013-03-07 09:13:00,
2013-03-07 04:23:00,32.0,30.0,30.16,NE,40,0.0,0.0,92,0.00,,,0.01,,2013-03-07 09:23:00,
2013-03-07 04:33:00,32.0,30.0,30.16,NNE,28,0.0,0.0,92,0.00,,,0.01,,2013-03-07 09:33:00,
2013-03-07 04:43:00,32.0,30.0,30.16,NNE,28,0.0,0.0,92,0.00,,,0.01,,2013-03-07 09:43:00,
2013-03-07 04:52:00,33.0,31.0,30.17,West,280,0.0,2.0,92,0.00,,,0.01,,2013-03-07 09:52:00,
2013-03-07 05:04:00,32.0,30.0,30.17,West,281,2.0,2.0,92,0.00,,,0.01,,2013-03-07 10:04:00,
2013-03-07 05:13:00,32.0,30.0,30.17,West,281,2.0,2.0,92,0.00,,,0.01,,2013-03-07 10:13:00,
2013-03-07 05:23:00,32.0,30.0,30.17,NNW,332,0.0,2.0,91,0.00,,,0.01,,2013-03-07 10:23:00,
2013-03-07 05:33:00,32.0,29.0,30.18,WNW,294,1.0,2.0,90,0.00,,,0.01,,2013-03-07 10:33:00,
2013-03-07 05:42:00,32.0,29.0,30.18,WNW,294,1.0,2.0,90,0.00,,,0.01,,2013-03-07 10:42:00,
2013-03-07 05:53:00,32.0,29.0,30.18,NW,309,0.0,4.0,89,0.00,,,0.01,,2013-03-07 10:53:00,
2013-03-07 06:03:00,32.0,29.0,30.19,NW,307,0.0,6.0,87,0.00,,,0.01,,2013-03-07 11:03:00,
2013-03-07 06:12:00,32.0,29.0,30.19,NW,307,0.0,6.0,87,0.00,,,0.01,,2013-03-07 11:12:00,
2013-03-07 06:23:00,32.0,28.0,30.19,North,9,2.0,6.0,86,0.00,,,0.01,,2013-03-07 11:23:00,
2013-03-07 06:33:00,31.0,27.0,30.20,NNW,345,0.0,4.0,85,0.00,,,0.01,,2013-03-07 11:33:00,
2013-03-07 06:43:00,31.0,27.0,30.20,NNW,345,0.0,4.0,85,0.00,,,0.01,,2013-03-07 11:43:00,
2013-03-07 06:54:00,31.0,26.0,30.20,North,0,1.0,5.0,83,0.00,,,0.01,,2013-03-07 11:54:00,
2013-03-07 07:03:00,30.0,25.0,30.20,North,0,1.0,4.0,83,0.00,,,0.01,,2013-03-07 12:03:00,
2013-03-07 07:12:00,30.0,25.0,30.20,North,0,1.0,4.0,83,0.00,,,0.01,,2013-03-07 12:12:00,
2013-03-07 07:23:00,30.0,25.0,30.21,North,5,0.0,7.0,82,0.00,,,0.01,,2013-03-07 12:23:00,
2013-03-07 07:33:00,30.0,25.0,30.22,NNW,338,2.0,2.0,83,0.00,,,0.01,,2013-03-07 12:33:00,
2013-03-07 07:43:00,30.0,25.0,30.22,NNW,338,2.0,2.0,83,0.00,,,0.01,,2013-03-07 12:43:00,
2013-03-07 07:53:00,30.0,25.0,30.22,NNE,28,3.0,4.0,83,0.00,,,0.01,,2013-03-07 12:53:00,
2013-03-07 08:03:00,30.0,26.0,30.23,NW,314,0.0,2.0,84,0.00,,,0.01,,2013-03-07 13:03:00,
2013-03-07 08:12:00,30.0,26.0,30.23,NW,314,0.0,2.0,84,0.00,,,0.01,,2013-03-07 13:12:00,
2013-03-07 08:23:00,30.0,26.0,30.23,North,0,0.0,2.0,84,0.00,,,0.01,,2013-03-07 13:23:00,
2013-03-07 08:32:00,30.0,25.0,30.24,North,0,0.0,1.0,83,0.00,,,0.01,,2013-03-07 13:32:00,
2013-03-07 08:42:00,30.0,25.0,30.24,North,0,0.0,1.0,83,0.00,,,0.01,,2013-03-07 13:42:00,
2013-03-07 08:53:00,31.0,26.0,30.24,North,5,1.0,5.0,81,0.00,,,0.01,,2013-03-07 13:53:00,
2013-03-07 09:02:00,31.0,25.0,30.24,NE,44,2.0,4.0,79,0.00,,,0.01,,2013-03-07 14:02:00,
2013-03-07 09:12:00,31.0,25.0,30.24,NE,44,2.0,4.0,79,0.00,,,0.01,,2013-03-07 14:12:00,
2013-03-07 09:23:00,31.0,25.0,30.25,North,355,0.0,3.0,78,0.00,,,0.01,,2013-03-07 14:23:00,
2013-03-07 09:33:00,31.0,25.0,30.26,NNW,340,1.0,1.0,78,0.00,,,0.01,,2013-03-07 14:33:00,
2013-03-07 09:42:00,31.0,25.0,30.26,NNW,340,1.0,1.0,78,0.00,,,0.01,,2013-03-07 14:42:00,
2013-03-07 09:54:00,31.0,25.0,30.26,North,349,0.0,4.0,78,0.00,,,0.01,,2013-03-07 14:54:00,
2013-03-07 10:03:00,31.0,25.0,30.27,NNE,17,0.0,4.0,77,0.00,,,0.01,,2013-03-07 15:03:00,
2013-03-07 10:12:00,31.0,25.0,30.27,NNE,17,0.0,4.0,77,0.00,,,0.01,,2013-03-07 15:12:00,
2013-03-07 10:23:00,32.0,25.0,30.27,North,355,0.0,5.0,76,0.00,,,0.01,,2013-03-07 15:23:00,
2013-03-07 10:33:00,32.0,25.0,30.27,NW,326,0.0,4.0,75,0.00,,,0.00,,2013-03-07 15:33:00,
2013-03-07 10:42:00,32.0,25.0,30.27,NW,326,0.0,4.0,75,0.00,,,0.00,,2013-03-07 15:42:00,
2013-03-07 10:52:00,32.0,24.0,30.27,WNW,286,0.0,2.0,71,0.00,,,0.00,,2013-03-07 15:52:00,
2013-03-07 11:02:00,33.0,24.0,30.27,NW,304,0.0,6.0,69,0.00,,,0.00,,2013-03-07 16:02:00,
2013-03-07 11:13:00,33.0,24.0,30.27,NW,304,0.0,6.0,69,0.00,,,0.00,,2013-03-07 16:13:00,
2013-03-07 11:23:00,33.0,23.0,30.27,NW,324,0.0,6.0,67,0.00,,,0.00,,2013-03-07 16:23:00,
2013-03-07 11:33:00,34.0,23.0,30.28,North,349,0.0,4.0,64,0.00,,,0.00,,2013-03-07 16:33:00,
2013-03-07 11:43:00,34.0,23.0,30.28,North,349,0.0,4.0,64,0.00,,,0.00,,2013-03-07 16:43:00,
2013-03-07 11:53:00,35.0,23.0,30.28,WNW,284,3.0,5.0,62,0.00,,,0.00,,2013-03-07 16:53:00,
2013-03-07 12:02:00,35.0,23.0,30.27,West,272,0.0,5.0,61,0.00,,,0.00,,2013-03-07 17:02:00,
2013-03-07 12:12:00,35.0,23.0,30.27,West,272,0.0,5.0,61,0.00,,,0.00,,2013-03-07 17:12:00,
2013-03-07 12:23:00,36.0,24.0,30.28,NNW,329,0.0,2.0,61,0.00,,,0.00,,2013-03-07 17:23:00,
2013-03-07 12:33:00,36.0,23.0,30.27,WNW,295,2.0,5.0,60,0.00,,,0.00,,2013-03-07 17:33:00,
2013-03-07 12:43:00,36.0,23.0,30.27,WNW,295,2.0,5.0,60,0.00,,,0.00,,2013-03-07 17:43:00,
2013-03-07 12:54:00,35.0,22.0,30.27,West,262,3.0,5.0,59,0.00,,,0.00,,2013-03-07 17:54:00,
2013-03-07 13:04:00,36.0,23.0,30.27,NNW,331,1.0,6.0,59,0.00,,,0.00,,2013-03-07 18:04:00,
2013-03-07 13:22:00,37.0,23.0,30.27,North,0,0.0,6.0,56,0.00,,,0.00,,2013-03-07 18:22:00,
2013-03-07 13:32:00,36.0,22.0,30.27,WNW,293,0.0,4.0,56,0.00,,,0.00,,2013-03-07 18:32:00,
2013-03-07 13:42:00,36.0,22.0,30.27,WNW,293,0.0,4.0,56,0.00,,,0.00,,2013-03-07 18:42:00,
2013-03-07 13:53:00,37.0,23.0,30.26,NNE,32,4.0,7.0,57,0.00,,,0.00,,2013-03-07 18:53:00,
2013-03-07 14:03:00,37.0,22.0,30.26,North,5,1.0,4.0,54,0.00,,,0.00,,2013-03-07 19:03:00,
2013-03-07 14:12:00,37.0,23.0,30.26,NNW,335,0.0,4.0,56,0.00,,,0.00,,2013-03-07 19:12:00,
2013-03-07 14:23:00,37.0,23.0,30.26,NNW,335,0.0,4.0,56,0.00,,,0.00,,2013-03-07 19:23:00,
2013-03-07 14:35:00,37.0,23.0,30.26,WSW,237,3.0,10.0,56,0.00,,,0.00,,2013-03-07 19:35:00,
2013-03-07 14:43:00,37.0,23.0,30.26,WSW,237,3.0,10.0,56,0.00,,,0.00,,2013-03-07 19:43:00,
2013-03-07 14:52:00,37.0,23.0,30.26,West,260,1.0,3.0,56,0.00,,,0.00,,2013-03-07 19:52:00,
2013-03-07 15:02:00,35.0,21.0,30.26,West,277,3.0,5.0,57,0.00,,,0.00,,2013-03-07 20:02:00,
2013-03-07 15:13:00,35.0,21.0,30.26,West,277,3.0,5.0,57,0.00,,,0.00,,2013-03-07 20:13:00,
2013-03-07 15:22:00,37.0,23.0,30.26,WNW,297,0.0,5.0,56,0.00,,,0.00,,2013-03-07 20:22:00,
2013-03-07 15:43:00,36.0,21.0,30.27,NNW,327,4.0,6.0,55,0.00,,,0.00,,2013-03-07 20:43:00,
2013-03-07 15:53:00,35.0,21.0,30.27,West,269,0.0,5.0,56,0.00,,,0.00,,2013-03-07 20:53:00,
2013-03-07 16:03:00,36.0,22.0,30.28,West,273,1.0,2.0,57,0.00,,,0.00,,2013-03-07 21:03:00,
2013-03-07 16:12:00,36.0,22.0,30.28,West,273,1.0,2.0,57,0.00,,,0.00,,2013-03-07 21:12:00,
2013-03-07 16:23:00,36.0,21.0,30.28,North,355,0.0,6.0,55,0.00,,,0.00,,2013-03-07 21:23:00,
2013-03-07 16:33:00,37.0,22.0,30.28,NNW,338,3.0,3.0,55,0.00,,,0.00,,2013-03-07 21:33:00,
2013-03-07 16:43:00,37.0,22.0,30.28,NNW,338,3.0,3.0,55,0.00,,,0.00,,2013-03-07 21:43:00,
2013-03-07 16:52:00,37.0,22.0,30.28,SW,233,1.0,7.0,54,0.00,,,0.00,,2013-03-07 21:52:00,
2013-03-07 17:02:00,37.0,22.0,30.28,North,355,0.0,3.0,54,0.00,,,0.00,,2013-03-07 22:02:00,
2013-03-07 17:12:00,37.0,22.0,30.28,North,355,0.0,3.0,54,0.00,,,0.00,,2013-03-07 22:12:00,
2013-03-07 17:23:00,36.0,21.0,30.27,West,259,1.0,6.0,53,0.00,,,0.00,,2013-03-07 22:23:00,
2013-03-07 17:32:00,36.0,21.0,30.27,NW,316,0.0,4.0,53,0.00,,,0.00,,2013-03-07 22:32:00,
2013-03-07 17:43:00,36.0,21.0,30.27,NW,316,0.0,4.0,53,0.00,,,0.00,,2013-03-07 22:43:00,
2013-03-07 17:54:00,36.0,21.0,30.28,West,275,0.0,5.0,54,0.00,,,0.00,,2013-03-07 22:54:00,
2013-03-07 18:03:00,36.0,21.0,30.28,WNW,294,0.0,5.0,54,0.00,,,0.00,,2013-03-07 23:03:00,
2013-03-07 18:13:00,36.0,21.0,30.28,WNW,294,0.0,5.0,54,0.00,,,0.00,,2013-03-07 23:13:00,
2013-03-07 18:22:00,35.0,20.0,30.29,WNW,289,0.0,5.0,54,0.00,,,0.00,,2013-03-07 23:22:00,
2013-03-07 18:34:00,34.0,21.0,30.30,WNW,298,0.0,1.0,58,0.00,,,0.00,,2013-03-07 23:34:00,
2013-03-07 18:43:00,34.0,21.0,30.30,WNW,298,0.0,1.0,58,0.00,,,0.00,,2013-03-07 23:43:00,
2013-03-07 18:54:00,34.0,22.0,30.30,NNW,340,0.0,1.0,61,0.00,,,0.00,,2013-03-07 23:54:00,
2013-03-07 19:04:00,33.0,22.0,30.31,NNW,342,0.0,0.0,63,0.00,,,0.00,,2013-03-08 00:04:00,
2013-03-07 19:13:00,33.0,22.0,30.31,NNW,342,0.0,0.0,63,0.00,,,0.00,,2013-03-08 00:13:00,
2013-03-07 19:23:00,32.0,21.0,30.32,NNW,342,0.0,0.0,63,0.00,,,0.00,,2013-03-08 00:23:00,
2013-03-07 19:34:00,31.0,21.0,30.32,NNW,342,0.0,0.0,65,0.00,,,0.00,,2013-03-08 00:34:00,
2013-03-07 19:44:00,31.0,21.0,30.32,NNW,342,0.0,0.0,65,0.00,,,0.00,,2013-03-08 00:44:00,
2013-03-07 19:54:00,30.0,20.0,30.33,NNW,342,0.0,0.0,67,0.00,,,0.00,,2013-03-08 00:54:00,
2013-03-07 20:02:00,30.0,20.0,30.33,NNW,342,0.0,0.0,67,0.00,,,0.00,,2013-03-08 01:02:00,
2013-03-07 20:11:00,30.0,20.0,30.33,NNW,342,0.0,0.0,67,0.00,,,0.00,,2013-03-08 01:11:00,
2013-03-07 20:22:00,28.0,20.0,30.33,NNW,342,0.0,0.0,72,0.00,,,0.00,,2013-03-08 01:22:00,
2013-03-07 20:33:00,27.0,20.0,30.33,NNW,342,0.0,0.0,73,0.00,,,0.00,,2013-03-08 01:33:00,
2013-03-07 20:42:00,27.0,20.0,30.33,NNW,342,0.0,0.0,73,0.00,,,0.00,,2013-03-08 01:42:00,
2013-03-07 20:52:00,27.0,20.0,30.33,NNW,342,0.0,0.0,75,0.00,,,0.00,,2013-03-08 01:52:00,
2013-03-07 21:01:00,26.0,20.0,30.33,NNW,342,0.0,0.0,77,0.00,,,0.00,,2013-03-08 02:01:00,
2013-03-07 21:12:00,26.0,20.0,30.34,NNW,342,0.0,0.0,79,0.00,,,0.00,,2013-03-08 02:12:00,
2013-03-07 21:22:00,26.0,20.0,30.34,NNW,342,0.0,0.0,79,0.00,,,0.00,,2013-03-08 02:22:00,
2013-03-07 21:32:00,26.0,21.0,30.33,NNW,342,0.0,0.0,80,0.00,,,0.00,,2013-03-08 02:32:00,
2013-03-07 21:42:00,26.0,21.0,30.33,NNW,342,0.0,0.0,80,0.00,,,0.00,,2013-03-08 02:42:00,
2013-03-07 21:53:00,25.0,20.0,30.34,NNW,342,0.0,0.0,80,0.00,,,0.00,,2013-03-08 02:53:00,
2013-03-07 22:02:00,25.0,20.0,30.34,NNW,342,0.0,0.0,80,0.00,,,0.00,,2013-03-08 03:02:00,
2013-03-07 22:12:00,25.0,20.0,30.34,NNW,342,0.0,0.0,80,0.00,,,0.00,,2013-03-08 03:12:00,
2013-03-07 22:22:00,25.0,20.0,30.34,NNW,342,0.0,0.0,81,0.00,,,0.00,,2013-03-08 03:22:00,
2013-03-07 22:32:00,24.0,19.0,30.34,NNW,342,0.0,0.0,81,0.00,,,0.00,,2013-03-08 03:32:00,
2013-03-07 22:43:00,24.0,19.0,30.34,NNW,342,0.0,0.0,81,0.00,,,0.00,,2013-03-08 03:43:00,
2013-03-07 22:53:00,24.0,19.0,30.33,NNW,342,0.0,0.0,81,0.00,,,0.00,,2013-03-08 03:53:00,
2013-03-07 23:02:00,24.0,19.0,30.33,NNW,342,0.0,0.0,82,0.00,,,0.00,,2013-03-08 04:02:00,
2013-03-07 23:11:00,24.0,19.0,30.33,NNW,342,0.0,0.0,82,0.00,,,0.00,,2013-03-08 04:11:00,
2013-03-07 23:22:00,23.0,18.0,30.34,NNW,342,0.0,0.0,82,0.00,,,0.00,,2013-03-08 04:22:00,
2013-03-07 23:32:00,23.0,18.0,30.34,NNW,342,0.0,0.0,82,0.00,,,0.00,,2013-03-08 04:32:00,
2013-03-07 23:42:00,23.0,18.0,30.34,NNW,342,0.0,0.0,82,0.00,,,0.00,,2013-03-08 04:42:00,
2013-03-07 23:52:00,23.0,19.0,30.35,NNW,342,0.0,0.0,83,0.00,,,0.00,,2013-03-08 04:52:00,